This is the latest recevied weather packets stored in our database for station/object K4FDS. If no packets are shown the sender has not sent any weather packets the latest 10 day(s).
| Time | Temp. | Humidity | Pressure | Rain* | Wind** | Luminosity | Snow |
|---|---|---|---|---|---|---|---|
| 1777556960 | 15° C | 69% | 1007.1 hPa | 0 mm | 0.45 m/s, 5° | - | - |
| 1777555160 | 13.33° C | 72% | 1007.7 hPa | 0 mm | 0 m/s | - | - |
| 1777553360 | 13.33° C | 76% | 1007.7 hPa | 0 mm | 0 m/s | - | - |
| 1777551560 | 13.33° C | 75% | 1007.6 hPa | 0 mm | 0.45 m/s, 336° | - | - |
| 1777549760 | 12.78° C | 79% | 1007 hPa | 0 mm | 0.45 m/s, 320° | - | - |
| 1777547960 | 12.78° C | 77% | 1006.3 hPa | 0 mm | 0.45 m/s, 352° | - | - |
| 1777546160 | 12.78° C | 80% | 1005.7 hPa | 0 mm | 0 m/s | - | - |
| 1777544360 | 13.33° C | 75% | 1005.4 hPa | 0 mm | 0 m/s | - | - |
| 1777542560 | 12.22° C | 80% | 1005 hPa | 0 mm | 0 m/s | - | - |
| 1777540760 | 12.22° C | 86% | 1005.1 hPa | 0 mm | 0 m/s | - | - |
| 1777538960 | 11.67° C | 89% | 1005.8 hPa | 0 mm | 0 m/s | - | - |
| 1777537160 | 11.67° C | 92% | 1006.3 hPa | 0 mm | 0 m/s | - | - |
| 1777535359 | 11.67° C | 87% | 1005.8 hPa | 0 mm | 0 m/s | - | - |
| 1777533560 | 12.22° C | 85% | 1005.9 hPa | 0 mm | 0 m/s | - | - |
| 1777531759 | 12.22° C | 85% | 1006.6 hPa | 0 mm | 0 m/s | - | - |
| 1777529959 | 12.78° C | 84% | 1006.6 hPa | 0 mm | 0 m/s | - | - |
| 1777528159 | 13.33° C | 83% | 1006.6 hPa | 0 mm | 0 m/s | - | - |
| 1777526359 | 13.33° C | 79% | 1006.8 hPa | 0 mm | 0 m/s | - | - |
| 1777524559 | 14.44° C | 77% | 1006.3 hPa | 0 mm | 0 m/s | - | - |
| 1777522759 | 15° C | 79% | 1006.1 hPa | 0 mm | 0.45 m/s, 247° | - | - |
| 1777520959 | 14.44° C | 84% | 1006.1 hPa | 0 mm | 0 m/s | - | - |
| 1777519159 | 15.56° C | 86% | 1005.9 hPa | 0 mm | 0 m/s | - | - |
| 1777517359 | 15.56° C | 86% | 1005.9 hPa | 0 mm | 0 m/s | - | - |
| 1777515559 | 15.56° C | 87% | 1005.9 hPa | 0 mm | 0 m/s | - | - |
| 1777513759 | 16.11° C | 88% | 1005.5 hPa | 0 mm | 0 m/s | - | - |
* Rain latest hour (hover to see other rain measurements)
** Current wind speed in m/s (hover to see current wind gust speed)